Time,TemperatureF,DewpointF,PressureIn,WindDirection,WindDirectionDegrees,WindSpeedMPH,WindSpeedGustMPH,Humidity,HourlyPrecipIn,Conditions,Clouds,dailyrainin,SolarRadiationWatts/m^2,SoftwareType,DateUTC
2014-02-03 00:01:00,29.1,27.9,30.14,NW,326,0.0,5.2,95,0.00,,OVC010,0.22,0.00,VWS V14.01,2014-02-03 05:01:00,
2014-02-03 00:02:00,29.1,27.9,30.14,NW,326,0.0,0.0,95,0.00,,OVC010,0.00,0.00,VWS V14.01,2014-02-03 05:02:00,
2014-02-03 00:07:00,29.0,27.8,30.13,NW,326,0.0,2.6,95,0.00,,OVC010,0.00,0.00,VWS V14.01,2014-02-03 05:07:00,
2014-02-03 00:12:00,29.0,27.8,30.13,NW,326,0.0,0.0,95,0.00,,OVC010,0.00,0.00,VWS V14.01,2014-02-03 05:12:00,
2014-02-03 00:17:00,29.0,27.5,30.14,NW,325,1.3,3.9,94,0.00,,OVC010,0.00,0.00,VWS V14.01,2014-02-03 05:17:00,
2014-02-03 00:22:00,29.0,27.5,30.14,NW,325,0.0,0.0,94,0.00,,OVC010,0.00,0.00,VWS V14.01,2014-02-03 05:22:00,
2014-02-03 00:27:00,28.9,27.4,30.14,NW,325,0.0,2.6,94,0.00,,OVC010,0.00,0.00,VWS V14.01,2014-02-03 05:27:00,
2014-02-03 00:32:00,28.9,27.4,30.14,NW,325,0.0,0.0,94,0.00,,OVC010,0.00,0.00,VWS V14.01,2014-02-03 05:32:00,
2014-02-03 00:37:00,28.8,27.3,30.13,NW,325,0.0,0.0,94,0.00,,OVC010,0.00,0.00,VWS V14.01,2014-02-03 05:37:00,
2014-02-03 00:42:00,28.8,27.3,30.13,NW,325,0.0,0.0,94,0.00,,OVC010,0.00,0.00,VWS V14.01,2014-02-03 05:42:00,
2014-02-03 00:47:00,28.7,27.2,30.13,NNW,327,0.0,0.0,94,0.00,,OVC010,0.00,0.00,VWS V14.01,2014-02-03 05:47:00,
2014-02-03 00:52:00,28.7,27.2,30.14,NNW,327,5.2,6.5,94,0.00,,OVC010,0.00,0.00,VWS V14.01,2014-02-03 05:52:00,
2014-02-03 00:57:00,28.7,27.2,30.14,NNW,328,0.0,0.0,94,0.00,,OVC010,0.00,0.00,VWS V14.01,2014-02-03 05:57:00,
2014-02-03 01:02:00,28.6,27.1,30.14,NNW,329,0.0,0.0,94,0.00,,OVC010,0.00,0.00,VWS V14.01,2014-02-03 06:02:00,
2014-02-03 01:07:00,28.6,27.1,30.14,NNW,329,0.0,0.0,94,0.00,,OVC010,0.00,0.00,VWS V14.01,2014-02-03 06:07:00,
2014-02-03 01:12:00,28.6,27.1,30.14,NNW,329,0.0,0.0,94,0.00,,OVC010,0.00,0.00,VWS V14.01,2014-02-03 06:12:00,
2014-02-03 01:17:00,28.6,27.1,30.14,NNW,329,0.0,0.0,94,0.00,,OVC010,0.00,0.00,VWS V14.01,2014-02-03 06:17:00,
2014-02-03 01:22:00,28.6,27.1,30.14,NNW,329,0.0,0.0,94,0.00,,OVC010,0.00,0.00,VWS V14.01,2014-02-03 06:22:00,
2014-02-03 01:27:00,28.6,27.1,30.14,NNW,329,0.0,0.0,94,0.00,,OVC010,0.00,0.00,VWS V14.01,2014-02-03 06:27:00,
2014-02-03 01:32:00,28.6,27.1,30.13,NNW,329,0.0,0.0,94,0.00,,OVC010,0.00,0.00,VWS V14.01,2014-02-03 06:32:00,
2014-02-03 01:37:00,28.6,27.1,30.13,NW,326,0.0,0.0,94,0.00,,OVC010,0.00,0.00,VWS V14.01,2014-02-03 06:37:00,
2014-02-03 01:42:00,28.6,27.1,30.12,NW,326,0.0,0.0,94,0.00,,OVC010,0.00,0.00,VWS V14.01,2014-02-03 06:42:00,
2014-02-03 01:47:00,28.5,27.0,30.12,NW,326,2.6,2.6,94,0.00,,OVC010,0.00,0.00,VWS V14.01,2014-02-03 06:47:00,
2014-02-03 01:52:00,28.5,27.0,30.12,NW,326,0.0,0.0,94,0.00,,OVC010,0.00,0.00,VWS V14.01,2014-02-03 06:52:00,
2014-02-03 01:57:00,28.5,27.0,30.12,NW,326,0.0,0.0,94,0.00,,OVC010,0.00,0.00,VWS V14.01,2014-02-03 06:57:00,
2014-02-03 02:02:00,28.5,27.0,30.12,NW,326,0.0,0.0,94,0.00,,OVC010,0.00,0.00,VWS V14.01,2014-02-03 07:02:00,
2014-02-03 02:07:00,28.6,27.1,30.12,NW,326,0.0,0.0,94,0.00,,OVC010,0.00,0.00,VWS V14.01,2014-02-03 07:07:00,
2014-02-03 02:12:00,28.5,27.0,30.12,NW,326,0.0,0.0,94,0.00,,OVC010,0.00,0.00,VWS V14.01,2014-02-03 07:12:00,
2014-02-03 02:17:00,28.5,27.0,30.12,NW,326,0.0,0.0,94,0.00,,OVC010,0.00,0.00,VWS V14.01,2014-02-03 07:17:00,
2014-02-03 02:22:00,28.5,27.0,30.11,NW,326,0.0,0.0,94,0.00,,OVC010,0.00,0.00,VWS V14.01,2014-02-03 07:22:00,
2014-02-03 02:27:00,28.5,27.0,30.11,NW,326,0.0,0.0,94,0.00,,OVC010,0.00,0.00,VWS V14.01,2014-02-03 07:27:00,
2014-02-03 02:32:00,28.5,27.0,30.11,NW,326,0.0,0.0,94,0.00,,OVC010,0.00,0.00,VWS V14.01,2014-02-03 07:32:00,
2014-02-03 02:37:00,28.6,27.1,30.11,NW,326,0.0,0.0,94,0.00,,OVC010,0.00,0.00,VWS V14.01,2014-02-03 07:37:00,
2014-02-03 02:42:00,28.6,27.1,30.11,NW,326,0.0,0.0,94,0.00,,OVC010,0.00,0.00,VWS V14.01,2014-02-03 07:42:00,
2014-02-03 02:47:00,28.5,27.0,30.11,NW,326,0.0,0.0,94,0.00,,OVC010,0.00,0.00,VWS V14.01,2014-02-03 07:47:00,
2014-02-03 02:52:00,28.6,27.1,30.11,NW,326,0.0,0.0,94,0.00,,OVC010,0.00,0.00,VWS V14.01,2014-02-03 07:52:00,
2014-02-03 02:57:00,28.6,27.1,30.11,NW,326,0.0,0.0,94,0.00,,OVC010,0.00,0.00,VWS V14.01,2014-02-03 07:57:00,
2014-02-03 03:02:00,28.6,27.1,30.10,NW,326,0.0,0.0,94,0.00,,OVC018,0.00,0.00,VWS V14.01,2014-02-03 08:02:00,
2014-02-03 03:07:00,28.6,27.1,30.10,NW,326,0.0,0.0,94,0.00,,OVC018,0.00,0.00,VWS V14.01,2014-02-03 08:07:00,
2014-02-03 03:11:00,28.5,27.0,30.10,NW,326,0.0,0.0,94,0.00,,OVC018,0.00,0.00,VWS V14.01,2014-02-03 08:11:00,
2014-02-03 03:16:00,28.5,27.0,30.11,NW,326,0.0,0.0,94,0.00,,OVC018,0.00,0.00,VWS V14.01,2014-02-03 08:16:00,
2014-02-03 03:21:00,28.5,27.0,30.10,NW,326,0.0,0.0,94,0.00,,OVC024,0.00,0.00,VWS V14.01,2014-02-03 08:21:00,
2014-02-03 03:26:00,28.5,27.0,30.11,NW,326,0.0,0.0,94,0.00,,OVC024,0.00,0.00,VWS V14.01,2014-02-03 08:26:00,
2014-02-03 03:31:00,28.4,26.9,30.10,NW,326,0.0,0.0,94,0.00,,OVC024,0.00,0.00,VWS V14.01,2014-02-03 08:31:00,
2014-02-03 03:36:00,28.4,26.9,30.10,NW,326,0.0,0.0,94,0.00,,OVC024,0.00,0.00,VWS V14.01,2014-02-03 08:36:00,
2014-02-03 03:41:00,28.4,26.9,30.10,NW,326,0.0,0.0,94,0.00,,OVC020,0.00,0.00,VWS V14.01,2014-02-03 08:41:00,
2014-02-03 03:46:00,28.4,26.9,30.09,NW,326,0.0,0.0,94,0.00,,OVC020,0.00,0.00,VWS V14.01,2014-02-03 08:46:00,
2014-02-03 03:51:00,28.3,26.8,30.10,NW,326,0.0,0.0,94,0.00,,OVC020,0.00,0.00,VWS V14.01,2014-02-03 08:51:00,
2014-02-03 03:56:00,28.3,26.8,30.10,NW,326,0.0,0.0,94,0.00,,OVC020,0.00,0.00,VWS V14.01,2014-02-03 08:56:00,
2014-02-03 04:01:00,28.3,26.8,30.10,NW,326,0.0,0.0,94,0.00,,OVC010,0.00,0.00,VWS V14.01,2014-02-03 09:01:00,
2014-02-03 04:06:00,28.2,26.7,30.10,NW,326,0.0,0.0,94,0.00,,OVC010,0.00,0.00,VWS V14.01,2014-02-03 09:06:00,
2014-02-03 04:11:00,28.1,26.6,30.10,NW,326,0.0,2.6,94,0.00,,OVC010,0.00,0.00,VWS V14.01,2014-02-03 09:11:00,
2014-02-03 04:16:00,28.1,26.6,30.09,NW,326,0.0,0.0,94,0.00,,OVC010,0.00,0.00,VWS V14.01,2014-02-03 09:16:00,
2014-02-03 04:21:00,28.0,26.5,30.09,NW,326,0.0,0.0,94,0.00,,OVC014,0.00,0.00,VWS V14.01,2014-02-03 09:21:00,
2014-02-03 04:26:00,28.0,26.5,30.09,NW,326,0.0,0.0,94,0.00,,OVC014,0.00,0.00,VWS V14.01,2014-02-03 09:26:00,
2014-02-03 04:31:00,27.9,26.4,30.09,NW,326,0.0,0.0,94,0.00,,OVC014,0.00,0.00,VWS V14.01,2014-02-03 09:31:00,
2014-02-03 04:36:00,27.9,26.4,30.09,NW,326,0.0,0.0,94,0.00,,OVC014,0.00,0.00,VWS V14.01,2014-02-03 09:36:00,
2014-02-03 04:41:00,27.8,26.3,30.09,NNW,329,0.0,0.0,94,0.00,,OVC012,0.00,0.00,VWS V14.01,2014-02-03 09:41:00,
2014-02-03 04:46:00,27.8,26.3,30.09,NNW,329,0.0,0.0,94,0.00,,OVC012,0.00,0.00,VWS V14.01,2014-02-03 09:46:00,
2014-02-03 04:51:00,27.7,26.2,30.09,NNW,329,0.0,0.0,94,0.00,,OVC012,0.00,0.00,VWS V14.01,2014-02-03 09:51:00,
2014-02-03 04:56:00,27.7,26.2,30.09,NNW,329,0.0,0.0,94,0.00,,OVC012,0.00,0.00,VWS V14.01,2014-02-03 09:56:00,
2014-02-03 05:01:00,27.6,26.1,30.09,NNW,329,0.0,0.0,94,0.00,,OVC012,0.00,0.00,VWS V14.01,2014-02-03 10:01:00,
2014-02-03 05:06:00,27.6,26.1,30.08,NNW,343,0.0,0.0,94,0.00,,OVC012,0.00,0.00,VWS V14.01,2014-02-03 10:06:00,
2014-02-03 05:11:00,27.6,26.1,30.07,NNW,343,0.0,0.0,94,0.00,,OVC012,0.00,0.00,VWS V14.01,2014-02-03 10:11:00,
2014-02-03 05:16:00,27.5,26.0,30.07,NNW,342,0.0,0.0,94,0.00,,OVC012,0.00,0.00,VWS V14.01,2014-02-03 10:16:00,
2014-02-03 05:21:00,27.5,26.0,30.07,NNW,342,0.0,0.0,94,0.00,,OVC012,0.00,0.00,VWS V14.01,2014-02-03 10:21:00,
2014-02-03 05:26:00,27.5,26.0,30.06,NNW,342,0.0,0.0,94,0.00,,OVC012,0.00,0.00,VWS V14.01,2014-02-03 10:26:00,
2014-02-03 05:31:00,27.4,25.9,30.07,NNW,342,0.0,0.0,94,0.00,,OVC012,0.00,0.00,VWS V14.01,2014-02-03 10:31:00,
2014-02-03 05:36:00,27.4,25.9,30.07,NNW,343,0.0,0.0,94,0.00,,OVC012,0.00,0.00,VWS V14.01,2014-02-03 10:36:00,
2014-02-03 05:41:00,27.4,25.9,30.07,NNW,342,0.0,0.0,94,0.00,,OVC014,0.00,0.00,VWS V14.01,2014-02-03 10:41:00,
2014-02-03 05:46:00,27.4,25.9,30.07,NNW,343,0.0,0.0,94,0.00,,OVC014,0.00,0.00,VWS V14.01,2014-02-03 10:46:00,
2014-02-03 05:51:00,27.3,25.8,30.07,NNW,343,0.0,0.0,94,0.00,,OVC014,0.00,0.00,VWS V14.01,2014-02-03 10:51:00,
2014-02-03 05:56:00,27.3,25.8,30.07,NNW,342,1.3,1.3,94,0.00,,OVC014,0.00,0.00,VWS V14.01,2014-02-03 10:56:00,
2014-02-03 06:01:00,27.3,25.8,30.07,NNW,343,0.0,0.0,94,0.00,,OVC070,0.00,0.00,VWS V14.01,2014-02-03 11:01:00,
2014-02-03 06:06:00,27.2,25.7,30.07,NNW,343,0.0,1.3,94,0.00,,OVC070,0.00,0.00,VWS V14.01,2014-02-03 11:06:00,
2014-02-03 06:11:00,27.2,25.7,30.07,NNW,344,0.0,0.0,94,0.00,,OVC070,0.00,0.00,VWS V14.01,2014-02-03 11:11:00,
2014-02-03 06:16:00,27.1,25.6,30.07,NNW,345,0.0,0.0,94,0.00,,OVC070,0.00,0.00,VWS V14.01,2014-02-03 11:16:00,
2014-02-03 06:21:00,27.1,25.6,30.07,NNW,346,0.0,0.0,94,0.00,,OVC040,0.00,0.00,VWS V14.01,2014-02-03 11:21:00,
2014-02-03 06:26:00,27.1,25.6,30.07,NNW,346,0.0,0.0,94,0.00,,OVC040,0.00,0.00,VWS V14.01,2014-02-03 11:26:00,
2014-02-03 06:31:00,27.0,25.5,30.07,North,355,0.0,0.0,94,0.00,,OVC040,0.00,0.00,VWS V14.01,2014-02-03 11:31:00,
2014-02-03 06:36:00,27.0,25.5,30.06,North,355,0.0,0.0,94,0.00,,OVC040,0.00,0.00,VWS V14.01,2014-02-03 11:36:00,
2014-02-03 06:41:00,27.0,25.5,30.07,North,355,0.0,0.0,94,0.00,,OVC011,0.00,0.00,VWS V14.01,2014-02-03 11:41:00,
2014-02-03 06:46:00,27.0,25.5,30.07,North,360,0.0,0.0,94,0.00,,OVC011,0.00,0.00,VWS V14.01,2014-02-03 11:46:00,
2014-02-03 06:51:00,27.0,25.5,30.08,North,5,0.0,0.0,94,0.00,,OVC011,0.00,0.00,VWS V14.01,2014-02-03 11:51:00,
2014-02-03 06:56:00,27.0,25.5,30.08,North,5,0.0,0.0,94,0.00,,OVC011,0.00,0.00,VWS V14.01,2014-02-03 11:56:00,
2014-02-03 07:01:00,26.9,25.4,30.07,North,360,0.0,0.0,94,0.00,,OVC011,0.00,0.00,VWS V14.01,2014-02-03 12:01:00,
2014-02-03 07:06:00,26.9,25.4,30.06,North,5,0.0,0.0,94,0.00,,OVC011,0.00,0.00,VWS V14.01,2014-02-03 12:06:00,
2014-02-03 07:11:00,26.9,25.4,30.07,North,5,0.0,0.0,94,0.00,,OVC011,0.00,0.00,VWS V14.01,2014-02-03 12:11:00,
2014-02-03 07:16:00,26.9,25.4,30.08,North,5,0.0,0.0,94,0.00,,OVC011,0.00,0.00,VWS V14.01,2014-02-03 12:16:00,
2014-02-03 07:21:00,26.9,25.4,30.09,North,360,0.0,0.0,94,0.00,,OVC020,0.00,0.00,VWS V14.01,2014-02-03 12:21:00,
2014-02-03 07:26:00,26.9,25.4,30.10,North,360,0.0,0.0,94,0.00,,OVC020,0.00,0.00,VWS V14.01,2014-02-03 12:26:00,
2014-02-03 07:31:00,26.9,25.4,30.11,North,5,0.0,0.0,94,0.00,,OVC020,0.00,0.00,VWS V14.01,2014-02-03 12:31:00,
2014-02-03 07:36:00,26.9,25.4,30.11,North,5,0.0,1.3,94,0.00,,OVC020,0.00,0.00,VWS V14.01,2014-02-03 12:36:00,
2014-02-03 07:41:00,26.9,25.4,30.10,North,5,0.0,0.0,94,0.00,,OVC019,0.00,0.00,VWS V14.01,2014-02-03 12:41:00,
2014-02-03 07:46:00,26.9,25.4,30.11,North,5,0.0,0.0,94,0.00,,OVC019,0.00,0.00,VWS V14.01,2014-02-03 12:46:00,
2014-02-03 07:51:00,26.9,25.4,30.11,North,360,0.0,0.0,94,0.00,,OVC019,0.00,0.00,VWS V14.01,2014-02-03 12:51:00,
2014-02-03 07:56:00,26.9,25.4,30.12,North,360,0.0,3.9,94,0.00,,OVC019,0.00,0.00,VWS V14.01,2014-02-03 12:56:00,
2014-02-03 08:01:00,26.9,25.4,30.12,NNW,346,0.0,3.9,94,0.00,,OVC010,0.00,0.00,VWS V14.01,2014-02-03 13:01:00,
2014-02-03 08:06:00,26.9,25.4,30.12,NNW,344,0.0,3.9,94,0.00,,OVC010,0.00,0.00,VWS V14.01,2014-02-03 13:06:00,
2014-02-03 08:11:00,26.9,25.4,30.11,NNW,344,0.0,0.0,94,0.00,,OVC010,0.00,0.00,VWS V14.01,2014-02-03 13:11:00,
2014-02-03 08:16:00,26.8,25.3,30.10,NNW,344,0.0,0.0,94,0.00,,OVC010,0.00,0.00,VWS V14.01,2014-02-03 13:16:00,
2014-02-03 08:21:00,26.8,25.3,30.11,NNW,346,0.0,2.6,94,0.00,,OVC008,0.00,0.00,VWS V14.01,2014-02-03 13:21:00,
2014-02-03 08:26:00,26.9,25.4,30.12,NNW,345,2.6,2.6,94,0.00,,OVC008,0.00,0.00,VWS V14.01,2014-02-03 13:26:00,
2014-02-03 08:31:00,26.8,25.3,30.12,NNW,348,0.0,2.6,94,0.00,,OVC008,0.00,0.00,VWS V14.01,2014-02-03 13:31:00,
2014-02-03 08:36:00,26.8,25.3,30.11,NNW,348,0.0,0.0,94,0.00,,OVC008,0.00,5.00,VWS V14.01,2014-02-03 13:36:00,
2014-02-03 08:41:00,26.9,25.4,30.11,NNW,348,0.0,1.3,94,0.00,,OVC008,0.00,5.00,VWS V14.01,2014-02-03 13:41:00,
2014-02-03 08:46:00,26.9,25.4,30.12,North,351,0.0,1.3,94,0.00,,OVC008,0.00,5.00,VWS V14.01,2014-02-03 13:46:00,
2014-02-03 08:51:00,26.9,25.4,30.12,North,350,0.0,0.0,94,0.00,,OVC008,0.00,5.00,VWS V14.01,2014-02-03 13:51:00,
2014-02-03 08:56:00,26.9,25.4,30.12,North,5,0.0,5.2,94,0.00,,OVC008,0.00,5.00,VWS V14.01,2014-02-03 13:56:00,
2014-02-03 09:01:00,26.9,25.4,30.12,North,5,0.0,0.0,94,0.00,,OVC008,0.00,5.00,VWS V14.01,2014-02-03 14:01:00,
2014-02-03 09:06:00,27.0,25.5,30.12,North,5,0.0,0.0,94,0.00,,OVC008,0.00,7.00,VWS V14.01,2014-02-03 14:06:00,
2014-02-03 09:11:00,27.0,25.5,30.13,North,5,0.0,0.0,94,0.00,,OVC008,0.00,7.00,VWS V14.01,2014-02-03 14:11:00,
2014-02-03 09:16:00,27.1,25.6,30.13,North,360,0.0,0.0,94,0.00,,OVC008,0.00,7.00,VWS V14.01,2014-02-03 14:16:00,
2014-02-03 09:21:00,27.2,25.7,30.14,North,5,0.0,1.3,94,0.00,,OVC015,0.00,7.00,VWS V14.01,2014-02-03 14:21:00,
2014-02-03 09:26:00,27.2,25.7,30.14,North,5,0.0,1.3,94,0.00,,OVC015,0.00,9.00,VWS V14.01,2014-02-03 14:26:00,
2014-02-03 09:31:00,27.2,25.7,30.14,NNW,346,0.0,3.9,94,0.00,,OVC015,0.00,9.00,VWS V14.01,2014-02-03 14:31:00,
2014-02-03 09:36:00,27.2,25.7,30.14,NNW,344,0.0,2.6,94,0.00,,OVC015,0.00,9.00,VWS V14.01,2014-02-03 14:36:00,
2014-02-03 09:41:00,27.2,25.7,30.14,NNW,330,0.0,7.8,94,0.00,,OVC023,0.00,11.00,VWS V14.01,2014-02-03 14:41:00,
2014-02-03 09:46:00,27.3,25.8,30.14,NNW,330,0.0,3.9,94,0.00,,OVC023,0.00,12.00,VWS V14.01,2014-02-03 14:46:00,
2014-02-03 09:51:00,27.3,25.8,30.15,NNW,330,0.0,0.0,94,0.00,,OVC023,0.00,11.00,VWS V14.01,2014-02-03 14:51:00,
2014-02-03 09:56:00,27.4,25.9,30.15,NNW,329,0.0,6.5,94,0.00,,OVC023,0.00,11.00,VWS V14.01,2014-02-03 14:56:00,
2014-02-03 10:01:00,27.3,25.8,30.14,NNW,329,0.0,0.0,94,0.00,,OVC015,0.00,11.00,VWS V14.01,2014-02-03 15:01:00,
2014-02-03 10:06:00,27.4,25.9,30.14,NNW,329,0.0,0.0,94,0.00,,OVC015,0.00,12.00,VWS V14.01,2014-02-03 15:06:00,
2014-02-03 10:11:00,27.5,26.0,30.14,NNW,329,0.0,0.0,94,0.00,,OVC015,0.00,18.00,VWS V14.01,2014-02-03 15:11:00,
2014-02-03 10:16:00,27.6,26.1,30.15,NNW,327,1.3,5.2,94,0.00,,OVC015,0.00,23.00,VWS V14.01,2014-02-03 15:16:00,
2014-02-03 10:21:00,27.7,26.2,30.14,NW,326,0.0,3.9,94,0.00,,OVC009,0.00,33.00,VWS V14.01,2014-02-03 15:21:00,
2014-02-03 10:26:00,28.0,26.8,30.15,NNW,327,3.9,3.9,95,0.00,,OVC009,0.00,37.00,VWS V14.01,2014-02-03 15:26:00,
2014-02-03 10:31:00,28.2,26.7,30.15,NNW,327,2.6,3.9,94,0.00,,OVC009,0.00,35.00,VWS V14.01,2014-02-03 15:31:00,
2014-02-03 10:36:00,28.4,26.9,30.15,NNW,327,0.0,3.9,94,0.00,,OVC009,0.00,30.00,VWS V14.01,2014-02-03 15:36:00,
2014-02-03 10:41:00,28.6,27.1,30.15,NNW,329,3.9,3.9,94,0.00,,OVC009,0.00,33.00,VWS V14.01,2014-02-03 15:41:00,
2014-02-03 10:46:00,28.6,27.1,30.15,NW,322,0.0,7.8,94,0.00,,OVC009,0.00,40.00,VWS V14.01,2014-02-03 15:46:00,
2014-02-03 10:51:00,28.7,27.2,30.16,NW,318,0.0,6.5,94,0.00,,OVC009,0.00,35.00,VWS V14.01,2014-02-03 15:51:00,
2014-02-03 10:56:00,28.9,27.4,30.16,NW,318,1.3,5.2,94,0.00,,OVC009,0.00,37.00,VWS V14.01,2014-02-03 15:56:00,
2014-02-03 11:01:00,29.1,27.6,30.16,NNW,340,0.0,5.2,94,0.00,,OVC009,0.00,37.00,VWS V14.01,2014-02-03 16:01:00,
2014-02-03 11:06:00,29.2,27.7,30.16,NW,321,2.6,11.7,94,0.00,,OVC009,0.00,40.00,VWS V14.01,2014-02-03 16:06:00,
2014-02-03 11:11:00,29.1,27.6,30.16,NW,321,0.0,5.2,94,0.00,,OVC009,0.00,37.00,VWS V14.01,2014-02-03 16:11:00,
2014-02-03 11:16:00,29.2,27.7,30.16,NW,321,0.0,0.0,94,0.00,,OVC009,0.00,32.00,VWS V14.01,2014-02-03 16:16:00,
2014-02-03 11:21:00,29.6,28.1,30.16,NW,325,0.0,1.3,94,0.00,,OVC011,0.00,35.00,VWS V14.01,2014-02-03 16:21:00,
2014-02-03 11:26:00,29.8,28.3,30.16,NNW,334,0.0,3.9,94,0.00,,OVC011,0.00,35.00,VWS V14.01,2014-02-03 16:26:00,
2014-02-03 11:31:00,30.2,28.7,30.16,NNW,334,0.0,2.6,94,0.00,,OVC011,0.00,37.00,VWS V14.01,2014-02-03 16:31:00,
2014-02-03 11:36:00,30.2,28.7,30.16,NNW,334,0.0,2.6,94,0.00,,OVC011,0.00,39.00,VWS V14.01,2014-02-03 16:36:00,
2014-02-03 11:41:00,30.1,28.3,30.17,NNW,331,1.3,3.9,93,0.00,,OVC011,0.00,35.00,VWS V14.01,2014-02-03 16:41:00,
2014-02-03 11:46:00,30.0,28.2,30.17,NNW,330,0.0,1.3,93,0.00,,OVC011,0.00,33.00,VWS V14.01,2014-02-03 16:46:00,
2014-02-03 11:51:00,30.1,28.3,30.16,NNW,331,0.0,0.0,93,0.00,,OVC011,0.00,28.00,VWS V14.01,2014-02-03 16:51:00,
2014-02-03 11:56:00,30.0,28.2,30.17,NW,323,0.0,5.2,93,0.00,,OVC011,0.00,25.00,VWS V14.01,2014-02-03 16:56:00,
2014-02-03 12:01:00,29.8,27.8,30.17,NW,324,0.0,2.6,92,0.00,,OVC011,0.00,25.00,VWS V14.01,2014-02-03 17:01:00,
2014-02-03 12:06:00,29.6,27.6,30.17,NW,323,0.0,5.2,92,0.00,,OVC011,0.00,30.00,VWS V14.01,2014-02-03 17:06:00,
2014-02-03 12:11:00,29.7,27.7,30.17,NW,323,0.0,2.6,92,0.00,,OVC011,0.00,33.00,VWS V14.01,2014-02-03 17:11:00,
2014-02-03 12:16:00,29.8,27.8,30.17,NW,323,0.0,2.6,92,0.00,,OVC011,0.00,33.00,VWS V14.01,2014-02-03 17:16:00,
2014-02-03 12:21:00,29.7,27.7,30.17,NW,323,0.0,3.9,92,0.00,,OVC011,0.00,30.00,VWS V14.01,2014-02-03 17:21:00,
2014-02-03 12:26:00,29.7,27.7,30.17,NW,325,2.6,3.9,92,0.00,,OVC011,0.00,33.00,VWS V14.01,2014-02-03 17:26:00,
2014-02-03 12:31:00,29.7,27.4,30.16,NW,325,0.0,2.6,91,0.00,,OVC011,0.00,32.00,VWS V14.01,2014-02-03 17:31:00,
2014-02-03 12:36:00,29.5,27.2,30.17,NW,323,0.0,5.2,91,0.00,,OVC011,0.00,26.00,VWS V14.01,2014-02-03 17:36:00,
2014-02-03 12:41:00,29.3,27.0,30.16,NW,323,1.3,5.2,91,0.00,,BKN011,0.00,26.00,VWS V14.01,2014-02-03 17:41:00,
2014-02-03 12:46:00,29.2,26.9,30.17,NW,321,0.0,5.2,91,0.00,,BKN011,0.00,26.00,VWS V14.01,2014-02-03 17:46:00,
2014-02-03 12:51:00,29.4,27.1,30.17,NW,321,5.2,5.2,91,0.00,,BKN011,0.00,21.00,VWS V14.01,2014-02-03 17:51:00,
2014-02-03 12:56:00,29.2,26.6,30.17,NW,320,2.6,9.1,90,0.00,,BKN011,0.00,23.00,VWS V14.01,2014-02-03 17:56:00,
2014-02-03 13:01:00,29.0,26.4,30.17,NW,317,0.0,5.2,90,0.00,,OVC011,0.00,18.00,VWS V14.01,2014-02-03 18:01:00,
2014-02-03 13:06:00,28.9,26.3,30.16,NW,319,0.0,3.9,90,0.00,,OVC011,0.00,19.00,VWS V14.01,2014-02-03 18:06:00,
2014-02-03 13:11:00,29.0,26.4,30.16,NW,319,2.6,2.6,90,0.00,,OVC011,0.00,26.00,VWS V14.01,2014-02-03 18:11:00,
2014-02-03 13:16:00,29.1,26.5,30.16,NW,319,0.0,5.2,90,0.00,,OVC011,0.00,33.00,VWS V14.01,2014-02-03 18:16:00,
2014-02-03 13:21:00,29.1,26.5,30.17,NW,320,2.6,5.2,90,0.00,,OVC011,0.00,33.00,VWS V14.01,2014-02-03 18:21:00,
2014-02-03 13:26:00,29.0,26.4,30.16,NW,319,0.0,6.5,90,0.00,,OVC011,0.00,35.00,VWS V14.01,2014-02-03 18:26:00,
2014-02-03 13:31:00,28.9,26.3,30.17,NW,317,6.5,7.8,90,0.00,,OVC011,0.00,35.00,VWS V14.01,2014-02-03 18:31:00,
2014-02-03 13:36:00,28.7,25.9,30.16,NW,319,0.0,5.2,89,0.00,,OVC011,0.00,35.00,VWS V14.01,2014-02-03 18:36:00,
2014-02-03 13:41:00,28.8,26.2,30.17,NW,319,0.0,5.2,90,0.00,,OVC009,0.00,42.00,VWS V14.01,2014-02-03 18:41:00,
2014-02-03 13:46:00,29.1,26.5,30.17,NW,319,0.0,0.0,90,0.00,,OVC009,0.00,47.00,VWS V14.01,2014-02-03 18:46:00,
2014-02-03 13:51:00,29.8,27.5,30.17,NW,318,0.0,0.0,91,0.00,,OVC009,0.00,40.00,VWS V14.01,2014-02-03 18:51:00,
2014-02-03 13:56:00,30.2,27.6,30.17,NW,318,0.0,0.0,90,0.00,,OVC009,0.00,28.00,VWS V14.01,2014-02-03 18:56:00,
2014-02-03 14:01:00,30.3,27.7,30.17,NW,321,0.0,6.5,90,0.01,,OVC011,0.01,26.00,VWS V14.01,2014-02-03 19:01:00,
2014-02-03 14:05:00,30.2,27.4,30.17,WNW,295,1.3,6.5,89,0.01,,OVC011,0.01,30.00,VWS V14.01,2014-02-03 19:05:00,
2014-02-03 14:10:00,30.2,27.4,30.17,NW,320,0.0,6.5,89,0.01,,OVC011,0.01,42.00,VWS V14.01,2014-02-03 19:10:00,
2014-02-03 14:15:00,30.5,27.6,30.17,NW,320,0.0,5.2,89,0.01,,OVC011,0.01,42.00,VWS V14.01,2014-02-03 19:15:00,
2014-02-03 14:20:00,30.8,28.0,30.17,NW,320,0.0,2.6,89,0.01,,OVC011,0.01,33.00,VWS V14.01,2014-02-03 19:20:00,
2014-02-03 14:25:00,31.1,28.2,30.17,NW,320,0.0,0.0,89,0.01,,OVC011,0.01,51.00,VWS V14.01,2014-02-03 19:25:00,
2014-02-03 14:30:00,31.5,28.4,30.17,NW,319,0.0,2.6,88,0.02,,OVC011,0.02,40.00,VWS V14.01,2014-02-03 19:30:00,
2014-02-03 14:35:00,31.3,27.9,30.17,NW,322,0.0,5.2,87,0.02,,OVC011,0.02,44.00,VWS V14.01,2014-02-03 19:35:00,
2014-02-03 14:40:00,31.1,27.7,30.17,NW,315,1.3,3.9,87,0.02,,OVC013,0.02,32.00,VWS V14.01,2014-02-03 19:40:00,
2014-02-03 14:45:00,31.3,27.9,30.17,NW,315,0.0,0.0,87,0.02,,OVC013,0.02,33.00,VWS V14.01,2014-02-03 19:45:00,
2014-02-03 14:50:00,31.5,28.1,30.17,NW,315,0.0,1.3,87,0.02,,OVC013,0.02,26.00,VWS V14.01,2014-02-03 19:50:00,
2014-02-03 14:55:00,31.4,27.7,30.17,NW,315,0.0,1.3,86,0.02,,OVC013,0.02,26.00,VWS V14.01,2014-02-03 19:55:00,
2014-02-03 15:00:00,31.2,27.5,30.17,NW,315,3.9,3.9,86,0.02,,OVC013,0.02,25.00,VWS V14.01,2014-02-03 20:00:00,
2014-02-03 15:05:00,31.0,27.0,30.17,NW,315,0.0,0.0,85,0.02,,OVC013,0.03,23.00,VWS V14.01,2014-02-03 20:05:00,
2014-02-03 15:10:00,30.8,26.8,30.17,NW,314,2.6,5.2,85,0.02,,OVC013,0.03,19.00,VWS V14.01,2014-02-03 20:10:00,
2014-02-03 15:15:00,30.4,26.1,30.17,NW,314,0.0,5.2,84,0.02,,OVC013,0.03,19.00,VWS V14.01,2014-02-03 20:15:00,
2014-02-03 15:20:00,30.3,26.3,30.18,NW,314,0.0,2.6,85,0.02,,OVC013,0.03,18.00,VWS V14.01,2014-02-03 20:20:00,
2014-02-03 15:25:00,30.1,25.9,30.18,NW,314,0.0,5.2,84,0.02,,OVC013,0.03,18.00,VWS V14.01,2014-02-03 20:25:00,
2014-02-03 15:30:00,30.0,26.0,30.18,NW,314,0.0,3.9,85,0.02,,OVC013,0.03,18.00,VWS V14.01,2014-02-03 20:30:00,
2014-02-03 15:35:00,30.0,25.8,30.18,NW,319,0.0,6.5,84,0.01,,OVC013,0.03,14.00,VWS V14.01,2014-02-03 20:35:00,
2014-02-03 15:40:00,29.8,25.6,30.19,NW,315,0.0,7.8,84,0.01,,OVC013,0.03,14.00,VWS V14.01,2014-02-03 20:40:00,
2014-02-03 15:45:00,29.7,25.5,30.19,NW,312,0.0,6.5,84,0.01,,OVC013,0.03,11.00,VWS V14.01,2014-02-03 20:45:00,
2014-02-03 15:50:00,29.6,25.4,30.20,NW,312,0.0,0.0,84,0.01,,OVC013,0.03,9.00,VWS V14.01,2014-02-03 20:50:00,
2014-02-03 15:55:00,29.5,25.6,30.20,NW,313,0.0,5.2,85,0.01,,OVC013,0.03,9.00,VWS V14.01,2014-02-03 20:55:00,
2014-02-03 16:00:00,29.4,25.2,30.20,NW,313,0.0,6.5,84,0.01,,OVC015,0.03,9.00,VWS V14.01,2014-02-03 21:00:00,
2014-02-03 16:05:00,29.3,25.4,30.20,NW,319,0.0,7.8,85,0.01,,OVC015,0.03,9.00,VWS V14.01,2014-02-03 21:05:00,
2014-02-03 16:10:00,29.3,25.4,30.21,NW,319,0.0,6.5,85,0.01,,OVC015,0.04,7.00,VWS V14.01,2014-02-03 21:10:00,
2014-02-03 16:15:00,29.2,25.3,30.22,NW,319,0.0,0.0,85,0.01,,OVC015,0.04,7.00,VWS V14.01,2014-02-03 21:15:00,
2014-02-03 16:20:00,29.1,25.2,30.22,NW,319,0.0,5.2,85,0.01,,OVC015,0.04,7.00,VWS V14.01,2014-02-03 21:20:00,
2014-02-03 16:25:00,29.1,25.2,30.23,WNW,297,3.9,7.8,85,0.01,,OVC015,0.04,7.00,VWS V14.01,2014-02-03 21:25:00,
2014-02-03 16:30:00,29.0,25.1,30.23,NW,317,7.8,10.4,85,0.01,,OVC015,0.04,5.00,VWS V14.01,2014-02-03 21:30:00,
2014-02-03 16:35:00,28.9,25.0,30.24,NW,310,0.0,6.5,85,0.01,,OVC015,0.04,5.00,VWS V14.01,2014-02-03 21:35:00,
2014-02-03 16:40:00,28.8,24.9,30.24,NW,306,0.0,5.2,85,0.01,,OVC017,0.04,5.00,VWS V14.01,2014-02-03 21:40:00,
2014-02-03 16:45:00,28.7,24.8,30.24,NW,307,1.3,7.8,85,0.01,,OVC017,0.04,0.00,VWS V14.01,2014-02-03 21:45:00,
2014-02-03 16:50:00,28.5,24.6,30.23,NW,324,0.0,7.8,85,0.01,,OVC017,0.04,0.00,VWS V14.01,2014-02-03 21:50:00,
2014-02-03 16:55:00,28.4,24.5,30.23,NW,319,0.0,3.9,85,0.01,,OVC017,0.04,5.00,VWS V14.01,2014-02-03 21:55:00,
2014-02-03 17:00:00,28.4,24.5,30.23,NW,314,5.2,6.5,85,0.01,,OVC017,0.04,0.00,VWS V14.01,2014-02-03 22:00:00,
2014-02-03 17:05:00,28.3,24.4,30.23,NW,313,0.0,6.5,85,0.01,,OVC017,0.04,0.00,VWS V14.01,2014-02-03 22:05:00,
2014-02-03 17:10:00,28.3,24.4,30.23,NW,313,0.0,1.3,85,0.01,,OVC017,0.04,0.00,VWS V14.01,2014-02-03 22:10:00,
2014-02-03 17:15:00,28.2,24.3,30.24,NW,318,0.0,6.5,85,0.00,,OVC017,0.04,0.00,VWS V14.01,2014-02-03 22:15:00,
2014-02-03 17:20:00,28.1,24.2,30.24,NW,316,0.0,5.2,85,0.00,,OVC019,0.04,0.00,VWS V14.01,2014-02-03 22:20:00,
2014-02-03 17:25:00,28.0,24.1,30.24,NW,315,1.3,5.2,85,0.00,,OVC019,0.04,0.00,VWS V14.01,2014-02-03 22:25:00,
2014-02-03 17:30:00,28.0,24.1,30.23,NW,316,0.0,0.0,85,0.00,,OVC019,0.04,0.00,VWS V14.01,2014-02-03 22:30:00,
2014-02-03 17:35:00,27.9,24.0,30.23,NW,316,0.0,0.0,85,0.00,,OVC019,0.04,0.00,VWS V14.01,2014-02-03 22:35:00,
2014-02-03 17:40:00,27.9,24.0,30.23,NW,315,0.0,0.0,85,0.00,,OVC019,0.04,0.00,VWS V14.01,2014-02-03 22:40:00,
2014-02-03 17:45:00,27.8,23.9,30.23,NW,315,0.0,0.0,85,0.00,,OVC019,0.04,0.00,VWS V14.01,2014-02-03 22:45:00,
2014-02-03 17:50:00,27.7,23.8,30.24,NW,316,0.0,1.3,85,0.00,,OVC019,0.04,0.00,VWS V14.01,2014-02-03 22:50:00,
2014-02-03 17:55:00,27.6,23.7,30.24,NW,315,0.0,2.6,85,0.00,,OVC019,0.04,0.00,VWS V14.01,2014-02-03 22:55:00,
2014-02-03 18:00:00,27.5,23.6,30.24,NW,315,0.0,3.9,85,0.00,,OVC021,0.04,0.00,VWS V14.01,2014-02-03 23:00:00,
2014-02-03 18:05:00,27.5,23.6,30.25,NW,316,0.0,0.0,85,0.00,,OVC021,0.04,0.00,VWS V14.01,2014-02-03 23:05:00,
2014-02-03 18:10:00,27.4,23.5,30.25,NW,315,0.0,0.0,85,0.00,,OVC021,0.04,0.00,VWS V14.01,2014-02-03 23:10:00,
2014-02-03 18:15:00,27.4,23.5,30.25,NW,316,0.0,0.0,85,0.00,,OVC021,0.04,0.00,VWS V14.01,2014-02-03 23:15:00,
2014-02-03 18:20:00,27.3,23.4,30.25,NW,315,0.0,0.0,85,0.00,,OVC023,0.04,0.00,VWS V14.01,2014-02-03 23:20:00,
2014-02-03 18:25:00,27.2,23.0,30.25,NW,315,1.3,2.6,84,0.00,,OVC023,0.04,0.00,VWS V14.01,2014-02-03 23:25:00,
2014-02-03 18:30:00,27.1,22.9,30.25,NW,315,0.0,3.9,84,0.00,,OVC023,0.04,0.00,VWS V14.01,2014-02-03 23:30:00,
2014-02-03 18:35:00,27.0,22.8,30.26,NW,316,0.0,0.0,84,0.00,,OVC023,0.04,0.00,VWS V14.01,2014-02-03 23:35:00,
2014-02-03 18:40:00,26.9,22.7,30.26,NW,316,0.0,0.0,84,0.00,,OVC023,0.04,0.00,VWS V14.01,2014-02-03 23:40:00,
2014-02-03 18:45:00,26.8,22.6,30.26,NW,316,0.0,5.2,84,0.00,,OVC023,0.04,0.00,VWS V14.01,2014-02-03 23:45:00,
2014-02-03 18:50:00,26.7,22.5,30.27,NW,315,1.3,1.3,84,0.00,,OVC023,0.04,0.00,VWS V14.01,2014-02-03 23:50:00,
2014-02-03 18:55:00,26.6,22.4,30.27,NW,315,0.0,0.0,84,0.00,,OVC023,0.04,0.00,VWS V14.01,2014-02-03 23:55:00,
2014-02-03 19:00:00,26.6,22.4,30.27,NW,315,0.0,0.0,84,0.00,,OVC023,0.04,0.00,VWS V14.01,2014-02-04 00:00:00,
2014-02-03 19:05:00,26.6,22.4,30.27,NW,316,0.0,0.0,84,0.00,,OVC023,0.04,0.00,VWS V14.01,2014-02-04 00:05:00,
2014-02-03 19:10:00,26.5,22.3,30.27,NW,316,0.0,2.6,84,0.00,,OVC023,0.04,0.00,VWS V14.01,2014-02-04 00:10:00,
2014-02-03 19:15:00,26.5,22.3,30.27,NW,316,0.0,0.0,84,0.00,,OVC023,0.04,0.00,VWS V14.01,2014-02-04 00:15:00,
2014-02-03 19:20:00,26.5,22.3,30.26,NW,316,0.0,0.0,84,0.00,,OVC025,0.04,0.00,VWS V14.01,2014-02-04 00:20:00,
2014-02-03 19:25:00,26.5,22.3,30.27,NW,315,0.0,0.0,84,0.00,,OVC025,0.04,0.00,VWS V14.01,2014-02-04 00:25:00,
2014-02-03 19:30:00,26.4,22.2,30.27,NW,316,0.0,0.0,84,0.00,,OVC025,0.04,0.00,VWS V14.01,2014-02-04 00:30:00,
2014-02-03 19:35:00,26.4,22.2,30.27,NW,316,0.0,0.0,84,0.00,,OVC025,0.04,0.00,VWS V14.01,2014-02-04 00:35:00,
2014-02-03 19:40:00,26.3,22.1,30.27,NW,316,0.0,0.0,84,0.00,,OVC027,0.04,0.00,VWS V14.01,2014-02-04 00:40:00,
2014-02-03 19:45:00,26.3,22.1,30.27,NW,316,0.0,0.0,84,0.00,,OVC027,0.04,0.00,VWS V14.01,2014-02-04 00:45:00,
2014-02-03 19:50:00,26.3,22.1,30.27,NW,316,0.0,0.0,84,0.00,,OVC027,0.04,0.00,VWS V14.01,2014-02-04 00:50:00,
2014-02-03 19:55:00,26.3,22.1,30.27,NW,316,0.0,0.0,84,0.00,,OVC027,0.04,0.00,VWS V14.01,2014-02-04 00:55:00,
2014-02-03 20:00:00,26.3,22.1,30.27,NW,316,0.0,0.0,84,0.00,,OVC027,0.04,0.00,VWS V14.01,2014-02-04 01:00:00,
2014-02-03 20:05:00,26.2,22.0,30.27,NW,316,0.0,0.0,84,0.00,,OVC027,0.04,0.00,VWS V14.01,2014-02-04 01:05:00,
2014-02-03 20:10:00,26.2,22.0,30.28,NW,316,0.0,0.0,84,0.00,,OVC027,0.04,0.00,VWS V14.01,2014-02-04 01:10:00,
2014-02-03 20:15:00,26.1,21.9,30.28,NW,316,0.0,0.0,84,0.00,,OVC027,0.04,0.00,VWS V14.01,2014-02-04 01:15:00,
2014-02-03 20:20:00,25.9,21.7,30.28,NW,315,0.0,2.6,84,0.00,,OVC027,0.04,0.00,VWS V14.01,2014-02-04 01:20:00,
2014-02-03 20:25:00,25.8,21.6,30.28,NW,316,0.0,0.0,84,0.00,,OVC027,0.04,0.00,VWS V14.01,2014-02-04 01:25:00,
2014-02-03 20:30:00,25.7,21.5,30.28,NW,315,0.0,0.0,84,0.00,,OVC027,0.04,0.00,VWS V14.01,2014-02-04 01:30:00,
2014-02-03 20:35:00,25.6,21.5,30.28,NW,315,0.0,0.0,84,0.00,,OVC027,0.04,0.00,VWS V14.01,2014-02-04 01:35:00,
2014-02-03 20:40:00,25.5,21.4,30.28,NW,316,0.0,0.0,84,0.00,,OVC027,0.04,0.00,VWS V14.01,2014-02-04 01:40:00,
2014-02-03 20:45:00,25.3,21.1,30.28,NW,315,0.0,0.0,84,0.00,,OVC027,0.04,0.00,VWS V14.01,2014-02-04 01:45:00,
2014-02-03 20:50:00,25.2,21.0,30.28,NW,315,0.0,0.0,84,0.00,,OVC027,0.04,0.00,VWS V14.01,2014-02-04 01:50:00,
2014-02-03 20:55:00,25.1,21.0,30.28,NW,316,0.0,0.0,84,0.00,,OVC027,0.04,0.00,VWS V14.01,2014-02-04 01:55:00,
2014-02-03 21:00:00,25.1,21.0,30.28,NW,315,0.0,0.0,84,0.00,,OVC027,0.04,0.00,VWS V14.01,2014-02-04 02:00:00,
2014-02-03 21:05:00,24.9,20.8,30.29,NW,315,0.0,1.3,84,0.00,,OVC027,0.04,0.00,VWS V14.01,2014-02-04 02:05:00,
2014-02-03 21:10:00,24.7,20.6,30.29,NW,316,0.0,0.0,84,0.00,,OVC027,0.04,0.00,VWS V14.01,2014-02-04 02:10:00,
2014-02-03 21:15:00,24.7,20.6,30.29,NW,316,0.0,0.0,84,0.00,,OVC027,0.04,0.00,VWS V14.01,2014-02-04 02:15:00,
2014-02-03 21:20:00,24.5,20.4,30.29,NW,316,0.0,0.0,84,0.00,,OVC027,0.04,0.00,VWS V14.01,2014-02-04 02:20:00,
2014-02-03 21:25:00,24.4,20.3,30.29,NW,315,0.0,0.0,84,0.00,,OVC027,0.04,0.00,VWS V14.01,2014-02-04 02:25:00,
2014-02-03 21:30:00,24.3,20.2,30.29,NW,316,0.0,0.0,84,0.00,,OVC027,0.04,0.00,VWS V14.01,2014-02-04 02:30:00,
2014-02-03 21:35:00,24.2,20.1,30.30,NW,316,0.0,0.0,84,0.00,,OVC027,0.04,0.00,VWS V14.01,2014-02-04 02:35:00,
2014-02-03 21:40:00,24.1,20.0,30.30,NW,315,0.0,0.0,84,0.00,,OVC027,0.04,0.00,VWS V14.01,2014-02-04 02:40:00,
2014-02-03 21:45:00,23.9,19.8,30.30,NW,315,0.0,0.0,84,0.00,,OVC027,0.04,0.00,VWS V14.01,2014-02-04 02:45:00,
2014-02-03 21:50:00,23.8,19.7,30.30,NW,315,0.0,0.0,84,0.00,,OVC027,0.04,0.00,VWS V14.01,2014-02-04 02:50:00,
2014-02-03 21:55:00,23.6,19.5,30.30,NW,316,0.0,0.0,84,0.00,,OVC027,0.04,0.00,VWS V14.01,2014-02-04 02:55:00,
2014-02-03 22:00:00,23.4,19.3,30.31,NW,316,0.0,0.0,84,0.00,,OVC027,0.04,0.00,VWS V14.01,2014-02-04 03:00:00,
2014-02-03 22:05:00,23.3,19.2,30.31,NW,315,0.0,0.0,84,0.00,,OVC027,0.04,0.00,VWS V14.01,2014-02-04 03:05:00,
2014-02-03 22:10:00,23.1,19.0,30.31,NW,315,0.0,0.0,84,0.00,,OVC027,0.04,0.00,VWS V14.01,2014-02-04 03:10:00,
2014-02-03 22:15:00,22.9,18.8,30.31,NW,315,0.0,0.0,84,0.00,,OVC027,0.04,0.00,VWS V14.01,2014-02-04 03:15:00,
2014-02-03 22:20:00,22.7,18.6,30.31,NW,316,0.0,0.0,84,0.00,,OVC027,0.04,0.00,VWS V14.01,2014-02-04 03:20:00,
2014-02-03 22:25:00,22.4,18.3,30.31,NW,316,0.0,0.0,84,0.00,,OVC027,0.04,0.00,VWS V14.01,2014-02-04 03:25:00,
2014-02-03 22:30:00,22.2,18.1,30.32,NW,315,0.0,0.0,84,0.00,,OVC027,0.04,0.00,VWS V14.01,2014-02-04 03:30:00,
2014-02-03 22:35:00,22.0,17.9,30.32,NW,316,0.0,0.0,84,0.00,,OVC027,0.04,0.00,VWS V14.01,2014-02-04 03:35:00,
2014-02-03 22:40:00,21.7,17.6,30.32,NW,316,0.0,0.0,84,0.00,,OVC027,0.04,0.00,VWS V14.01,2014-02-04 03:40:00,
2014-02-03 22:45:00,21.5,17.4,30.32,NW,315,0.0,0.0,84,0.00,,BKN025,0.04,0.00,VWS V14.01,2014-02-04 03:45:00,
2014-02-03 22:50:00,21.3,17.2,30.31,NW,315,0.0,0.0,84,0.00,,BKN025,0.04,0.00,VWS V14.01,2014-02-04 03:50:00,
2014-02-03 22:55:00,21.1,17.0,30.31,NW,315,0.0,0.0,84,0.00,,BKN025,0.04,0.00,VWS V14.01,2014-02-04 03:55:00,
2014-02-03 23:00:00,20.8,16.7,30.32,NW,316,0.0,0.0,84,0.00,,BKN025,0.04,0.00,VWS V14.01,2014-02-04 04:00:00,
2014-02-03 23:05:00,20.6,16.5,30.31,NW,316,0.0,0.0,84,0.00,,SCT025,0.04,0.00,VWS V14.01,2014-02-04 04:05:00,
2014-02-03 23:10:00,20.3,16.2,30.31,NW,315,0.0,0.0,84,0.00,,SCT025,0.04,0.00,VWS V14.01,2014-02-04 04:10:00,
2014-02-03 23:15:00,20.1,16.0,30.31,NW,315,0.0,0.0,84,0.00,,SCT025,0.04,0.00,VWS V14.01,2014-02-04 04:15:00,
2014-02-03 23:20:00,19.8,15.8,30.31,NW,316,0.0,0.0,84,0.00,,SCT025,0.04,0.00,VWS V14.01,2014-02-04 04:20:00,
2014-02-03 23:25:00,19.7,15.7,30.31,NW,316,0.0,0.0,84,0.00,,CLR,0.04,0.00,VWS V14.01,2014-02-04 04:25:00,
2014-02-03 23:30:00,19.5,15.5,30.30,NW,316,0.0,0.0,84,0.00,,CLR,0.04,0.00,VWS V14.01,2014-02-04 04:30:00,
2014-02-03 23:35:00,19.2,15.2,30.30,NW,316,0.0,0.0,84,0.00,,CLR,0.04,0.00,VWS V14.01,2014-02-04 04:35:00,
2014-02-03 23:40:00,19.0,15.0,30.31,NW,315,0.0,0.0,84,0.00,,CLR,0.04,0.00,VWS V14.01,2014-02-04 04:40:00,
2014-02-03 23:45:00,18.8,14.8,30.31,NW,316,0.0,0.0,84,0.00,,CLR,0.04,0.00,VWS V14.01,2014-02-04 04:45:00,
2014-02-03 23:50:00,18.6,14.6,30.31,NW,315,0.0,0.0,84,0.00,,CLR,0.04,0.00,VWS V14.01,2014-02-04 04:50:00,
2014-02-03 23:55:00,18.4,14.4,30.31,NW,315,0.0,0.0,84,0.00,,CLR,0.04,0.00,VWS V14.01,2014-02-04 04:55:00,